GSAT-N2 (GSAT-20)

Last updated on Sun Jun 21 2026 00:03:09 GMT+0000 (Coordinated Universal Time)

1 62028U 24214A 26171.40537204 -.00000023 00000+0 00000+0 0 9997 2 62028 0.0463 108.9199 0001953 329.6343 43.9353 1.00270647 5939
UTC large
Height (km)
Speed (km/s)
/
Latitude / Longitude
Inclination (degrees)
Orbital Period (minutes)
Azimuth
Elevation
Range (km)
Doppler Factor

Next 0 passes for location: London (51.5072 / 0.1276)

No passes found over London.
GSAT-N2 (GSAT-20)